EW9837 Weather Reports


time (UTC)temp
C
wind
direction
speed
KPH
gust
KPH
rain 1hr
cm
rain 24hr
cm
rain mn
cm
humidity
%
barometer
mb
20260506040107 13 140 4.8 8.0 0.00 0.00 0.00 80 1016.4
20260506034610 14 157 4.8 6.4 0.00 0.00 0.00 75 1016.0
20260506033035 16 140 3.2 6.4 0.00 0.00 0.00 69 1015.9
20260506031535 17 122 3.2 6.4 0.00 0.00 0.00 66 1015.7
20260506030108 18 128 3.2 6.4 0.00 0.00 0.00 62 1015.5
20260506024651 19 148 3.2 9.7 0.00 0.00 0.00 59 1015.4
20260506023034 20 39 8.0 17.7 0.00 0.00 0.00 56 1015.1
20260506021537 21 44 9.7 19.3 0.00 0.00 0.00 53 1015.0
20260506020036 22 35 8.0 14.5 0.00 0.00 0.00 48 1014.9
20260506014536 23 12 12.9 24.1 0.00 0.00 0.00 47 1014.7
20260506013037 23 360 9.7 20.9 0.00 0.00 0.00 46 1014.7
20260506011535 23 273 3.2 9.7 0.00 0.00 0.00 45 1014.6
20260506010142 24 277 4.8 11.3 0.00 0.00 0.00 46 1014.6
20260506000036 24 263 6.4 16.1 0.00 0.00 0.00 51 1014.7
20260505234535 23 33 4.8 12.9 0.00 0.00 0.00 53 1014.9
20260505233153 23 71 9.7 22.5 0.00 0.00 0.00 53 1014.9
20260505231536 23 85 9.7 19.3 0.00 0.00 0.00 53 1014.9
20260505230037 23 83 11.3 20.9 0.00 0.00 0.00 53 1015.0
20260505224537 23 70 11.3 19.3 0.00 0.00 0.00 53 1015.1
20260505223143 23 66 12.9 19.3 0.00 0.00 0.00 53 1015.2
20260505221537 23 78 12.9 20.9 0.00 0.00 0.00 51 1015.3
20260505220035 24 60 9.7 19.3 0.00 0.00 0.00 48 1015.4
20260505214609 24 32 8.0 24.1 0.00 0.00 0.00 49 1015.5
20260505213034 23 14 8.0 22.5 0.00 0.00 0.00 50 1015.6
20260505211537 23 56 9.7 20.9 0.00 0.00 0.00 52 1015.6
20260505210035 22 56 11.3 19.3 0.00 0.00 0.00 52 1015.7
20260505204607 23 70 9.7 24.1 0.00 0.00 0.00 50 1015.9
20260505201534 23 34 9.7 19.3 0.00 0.00 0.00 50 1016.0
20260505200108 23 45 6.4 20.9 0.00 0.00 0.00 49 1016.0
20260505194535 22 33 8.0 17.7 0.00 0.00 0.00 50 1016.1
20260505193034 22 58 6.4 12.9 0.00 0.00 0.00 52 1016.2
20260505191536 22 70 8.0 17.7 0.00 0.00 0.00 51 1016.3
20260505190031 22 14 6.4 14.5 0.00 0.00 0.00 51 1016.4
20260505184534 22 36 6.4 12.9 0.00 0.00 0.00 52 1016.4
20260505183106 22 44 6.4 16.1 0.00 0.00 0.00 52 1016.4
20260505181536 21 46 6.4 12.9 0.00 0.00 0.00 52 1016.4
20260505180035 21 17 4.8 11.3 0.00 0.00 0.00 53 1016.4
20260505174535 21 99 4.8 12.9 0.00 0.00 0.00 54 1016.4
20260505173110 20 63 4.8 11.3 0.00 0.00 0.00 55 1016.3
20260505171534 20 52 6.4 11.3 0.00 0.00 0.00 56 1016.3
20260505170047 20 111 3.2 9.7 0.00 0.00 0.00 55 1016.3
20260505163036 18 66 3.2 9.7 0.00 0.00 0.00 60 1016.2
20260505161609 18 76 3.2 9.7 0.00 0.00 0.00 62 1016.2
20260505153107 16 84 3.2 6.4 0.00 0.00 0.00 71 1016.2
20260505151534 15 74 4.8 9.7 0.00 0.00 0.00 73 1016.2
20260505150107 14 81 4.8 9.7 0.00 0.00 0.00 79 1016.1
20260505124608 7 169 3.2 8.0 0.00 0.00 0.00 95 1015.0
20260505123036 6 169 4.8 8.0 0.00 0.00 0.00 95 1015.0
20260505121608 7 155 4.8 6.4 0.00 0.00 0.00 95 1015.0
20260505120035 7 155 4.8 6.4 0.00 0.00 0.00 94 1014.9
20260505113035 7 165 3.2 6.4 0.00 0.00 0.00 94 1014.9
20260505111607 7 175 4.8 6.4 0.00 0.00 0.00 94 1014.8
20260505101608 8 164 4.8 6.4 0.00 0.00 0.00 91 1014.5
20260505100047 8 187 3.2 6.4 0.00 0.00 0.00 90 1014.5
20260505094534 8 200 1.6 8.0 0.00 0.00 0.00 89 1014.4
20260505093108 9 199 3.2 8.0 0.00 0.00 0.00 87 1014.4
20260505091536 10 156 3.2 8.0 0.00 0.00 0.00 84 1014.3
20260505090036 11 146 3.2 6.4 0.00 0.00 0.00 83 1014.3
20260505084534 11 158 4.8 9.7 0.00 0.00 0.00 83 1014.2
20260505083033 11 92 3.2 9.7 0.00 0.00 0.00 83 1014.2
20260505081535 12 140 0.0 4.8 0.00 0.00 0.00 81 1014.2
20260505080037 13 106 3.2 8.0 0.00 0.00 0.00 80 1014.3
20260505074607 13 115 3.2 9.7 0.00 0.00 0.00 79 1014.2
20260505073037 14 149 1.6 9.7 0.00 0.00 0.00 77 1014.2
20260505071537 13 127 4.8 12.9 0.00 0.00 0.00 79 1014.1
20260505070107 14 92 3.2 8.0 0.00 0.00 0.00 77 1014.0
20260505064534 14 132 1.6 12.9 0.00 0.00 0.00 76 1014.0
20260505061643 15 102 3.2 8.0 0.00 0.00 0.00 71 1014.0